CMP360 MPTO-KLAX

Flight info

Callsign CMP360
Flight time 6h 31m
Altitude 32000
Route SIMAN3B SIMAN DCT ALGEN DCT AMUBI DCT VOKAS/N0466F340 DCT ATUTO DCT AXOMU DCT RAULS DCT CVM DCT AVAPA/N0460F360 DCT ASUTA DCT AMMOR OLAAA2
Aircraft B738/M-SDE2E3FGHIRWXY/LB1

Departure

Time 2026-04-25 13:11
Airport Tocumen International Airport (MPTO)

Arrival

Time 2026-04-25 19:42
Airport Los Angeles International Airport (KLAX)
Time Latitude Longitude Altitude Speed Heading
2026-04-25 12:45 9.06727 -79.38567 51 ft 0 kts 301°
2026-04-25 12:59 9.06724 -79.38562 51 ft 2 kts 301°
2026-04-25 12:59 9.06716 -79.38548 49 ft 2 kts 301°
2026-04-25 13:00 9.06707 -79.38534 43 ft 2 kts 301°
2026-04-25 13:00 9.06704 -79.38529 43 ft 0 kts 301°
2026-04-25 13:00 9.06699 -79.38520 48 ft 2 kts 301°
2026-04-25 13:00 9.06695 -79.38513 48 ft 0 kts 301°
2026-04-25 13:04 9.06695 -79.38514 48 ft 1 kts 299°
2026-04-25 13:04 9.06690 -79.38528 48 ft 3 kts 231°
2026-04-25 13:04 9.06656 -79.38516 47 ft 8 kts 143°
2026-04-25 13:04 9.06600 -79.38503 43 ft 9 kts 191°
2026-04-25 13:05 9.06547 -79.38532 45 ft 9 kts 210°
2026-04-25 13:05 9.06497 -79.38562 44 ft 8 kts 210°
2026-04-25 13:05 9.06448 -79.38591 45 ft 8 kts 210°
2026-04-25 13:05 9.06400 -79.38620 45 ft 9 kts 211°
2026-04-25 13:06 9.06333 -79.38646 44 ft 12 kts 182°
2026-04-25 13:06 9.06252 -79.38644 41 ft 12 kts 181°
2026-04-25 13:06 9.06166 -79.38658 44 ft 13 kts 195°
2026-04-25 13:06 9.06085 -79.38699 44 ft 13 kts 209°
2026-04-25 13:07 9.06007 -79.38743 44 ft 13 kts 209°
2026-04-25 13:07 9.05929 -79.38787 43 ft 13 kts 208°
2026-04-25 13:07 9.05837 -79.38839 43 ft 18 kts 208°
2026-04-25 13:07 9.05709 -79.38912 43 ft 23 kts 209°
2026-04-25 13:08 9.05571 -79.38991 43 ft 23 kts 209°
2026-04-25 13:08 9.05436 -79.39068 43 ft 22 kts 208°
2026-04-25 13:08 9.05304 -79.39141 41 ft 21 kts 209°
2026-04-25 13:08 9.05178 -79.39215 43 ft 21 kts 210°
2026-04-25 13:09 9.05054 -79.39285 44 ft 20 kts 210°
2026-04-25 13:09 9.04935 -79.39354 43 ft 19 kts 208°
2026-04-25 13:09 9.04836 -79.39371 44 ft 11 kts 139°
2026-04-25 13:09 9.04798 -79.39307 42 ft 10 kts 117°
2026-04-25 13:10 9.04775 -79.39246 44 ft 7 kts 81°
2026-04-25 13:10 9.04796 -79.39238 44 ft 3 kts 15°
2026-04-25 13:10 9.04833 -79.39220 42 ft 14 kts 28°
2026-04-25 13:10 9.05119 -79.39058 44 ft 81 kts 29°
2026-04-25 13:11 9.05785 -79.38680 44 ft 139 kts 29°
2026-04-25 13:11 9.06765 -79.38114 164 ft 175 kts 29°
2026-04-25 13:11 9.07876 -79.37495 689 ft 194 kts 29°
2026-04-25 13:11 9.09120 -79.36791 1247 ft 209 kts 30°
2026-04-25 13:12 9.10412 -79.36055 1819 ft 217 kts 30°
2026-04-25 13:12 9.11751 -79.35292 2347 ft 225 kts 30°
2026-04-25 13:12 9.13126 -79.34506 2844 ft 236 kts 30°
2026-04-25 13:12 9.14106 -79.33948 3200 ft 243 kts 30°
2026-04-25 13:13 9.15676 -79.33053 3812 ft 251 kts 30°
2026-04-25 13:13 9.17253 -79.32155 4187 ft 268 kts 29°
2026-04-25 13:13 9.18898 -79.31218 4817 ft 274 kts 29°
2026-04-25 13:13 9.20576 -79.30288 5511 ft 276 kts 23°
2026-04-25 13:14 9.22458 -79.29957 6165 ft 278 kts 353°
2026-04-25 13:14 9.24272 -79.30597 6830 ft 279 kts 325°
2026-04-25 13:14 9.25605 -79.32015 7450 ft 282 kts 298°
2026-04-25 13:14 9.26237 -79.33888 8073 ft 285 kts 279°
2026-04-25 13:15 9.26414 -79.35893 8718 ft 288 kts 272°
2026-04-25 13:15 9.26473 -79.37925 9372 ft 290 kts 272°
2026-04-25 13:15 9.26519 -79.39977 10005 ft 293 kts 272°
2026-04-25 13:15 9.26579 -79.42054 10588 ft 296 kts 272°
2026-04-25 13:16 9.26653 -79.44142 11174 ft 299 kts 272°
2026-04-25 13:16 9.26737 -79.46252 11749 ft 302 kts 273°
2026-04-25 13:16 9.26830 -79.48383 12314 ft 304 kts 273°
2026-04-25 13:16 9.26926 -79.50535 12905 ft 307 kts 273°
2026-04-25 13:17 9.27025 -79.52705 13470 ft 310 kts 273°
2026-04-25 13:17 9.27140 -79.54898 13997 ft 314 kts 277°
2026-04-25 13:17 9.27564 -79.57108 14201 ft 329 kts 285°
2026-04-25 13:17 9.28224 -79.59389 14334 ft 345 kts 287°
2026-04-25 13:18 9.28807 -79.61259 14425 ft 358 kts 288°
2026-04-25 13:18 9.29573 -79.63719 14536 ft 373 kts 287°
2026-04-25 13:18 9.30337 -79.66235 14696 ft 385 kts 287°
2026-04-25 13:18 9.31107 -79.68839 15023 ft 391 kts 286°
2026-04-25 13:19 9.31849 -79.71395 15476 ft 392 kts 286°
2026-04-25 13:19 9.32611 -79.74045 15953 ft 393 kts 286°
2026-04-25 13:19 9.33375 -79.76715 16383 ft 396 kts 286°
2026-04-25 13:19 9.33633 -79.77620 16525 ft 397 kts 286°
2026-04-25 13:20 9.34913 -79.82098 17235 ft 401 kts 286°
2026-04-25 13:20 9.35693 -79.84822 17646 ft 404 kts 286°
2026-04-25 13:20 9.36590 -79.87523 18015 ft 407 kts 294°
2026-04-25 13:20 9.37903 -79.90073 18395 ft 409 kts 298°
2026-04-25 13:21 9.39325 -79.92575 18748 ft 411 kts 300°
2026-04-25 13:21 9.40778 -79.95074 19092 ft 413 kts 300°
2026-04-25 13:21 9.42234 -79.97586 19421 ft 415 kts 300°
2026-04-25 13:21 9.43687 -80.00122 19742 ft 417 kts 300°
2026-04-25 13:22 9.45132 -80.02673 20065 ft 419 kts 300°
2026-04-25 13:22 9.46574 -80.05242 20386 ft 421 kts 300°
2026-04-25 13:22 9.48017 -80.07826 20684 ft 423 kts 300°
2026-04-25 13:23 9.50915 -80.13039 21274 ft 427 kts 300°
2026-04-25 13:23 9.52372 -80.15663 21559 ft 429 kts 300°
2026-04-25 13:23 9.53838 -80.18303 21864 ft 430 kts 300°
2026-04-25 13:23 9.55307 -80.20950 22142 ft 432 kts 300°
2026-04-25 13:24 9.56781 -80.23606 22410 ft 434 kts 300°
2026-04-25 13:24 9.58266 -80.26280 22670 ft 436 kts 300°
2026-04-25 13:24 9.59754 -80.28962 22938 ft 438 kts 300°
2026-04-25 13:24 9.61248 -80.31655 23184 ft 440 kts 300°
2026-04-25 13:25 9.62748 -80.34359 23443 ft 441 kts 300°
2026-04-25 13:25 9.64252 -80.37071 23656 ft 442 kts 300°
2026-04-25 13:25 9.65763 -80.39797 23863 ft 444 kts 300°
2026-04-25 13:25 9.67273 -80.42520 24080 ft 445 kts 300°
2026-04-25 13:26 9.68792 -80.45261 24292 ft 446 kts 300°
2026-04-25 13:26 9.70311 -80.48003 24489 ft 447 kts 300°
2026-04-25 13:26 9.71836 -80.50756 24688 ft 448 kts 300°
2026-04-25 13:26 9.73366 -80.53518 24888 ft 450 kts 300°
2026-04-25 13:27 9.74897 -80.56285 25095 ft 450 kts 300°
2026-04-25 13:27 9.76412 -80.59021 25277 ft 452 kts 300°
2026-04-25 13:27 9.77971 -80.61839 25483 ft 453 kts 300°
2026-04-25 13:27 9.79413 -80.64444 25661 ft 454 kts 300°
2026-04-25 13:28 9.80958 -80.67238 25853 ft 455 kts 300°
2026-04-25 13:28 9.81459 -80.68144 25919 ft 455 kts 300°
2026-04-25 13:28 9.84036 -80.72804 26231 ft 457 kts 300°
2026-04-25 13:28 9.85611 -80.75655 26429 ft 457 kts 300°
2026-04-25 13:29 9.87168 -80.78472 26609 ft 458 kts 300°
2026-04-25 13:29 9.88728 -80.81295 26779 ft 460 kts 300°
2026-04-25 13:29 9.90294 -80.84131 26949 ft 461 kts 300°
2026-04-25 13:30 9.93407 -80.89771 27291 ft 462 kts 300°
2026-04-25 13:30 9.95001 -80.92660 27463 ft 463 kts 300°
2026-04-25 13:30 9.96553 -80.95473 27640 ft 464 kts 300°
2026-04-25 13:31 9.99836 -81.01119 27925 ft 466 kts 306°
2026-04-25 13:31 10.01954 -81.03661 28112 ft 465 kts 314°
2026-04-25 13:31 10.03438 -81.05220 28296 ft 464 kts 314°
2026-04-25 13:31 10.06455 -81.08338 28675 ft 461 kts 314°
2026-04-25 13:32 10.07942 -81.09872 28831 ft 461 kts 314°
2026-04-25 13:32 10.10911 -81.12951 29101 ft 461 kts 314°
2026-04-25 13:32 10.13144 -81.15283 29325 ft 460 kts 314°
2026-04-25 13:32 10.15366 -81.17616 29604 ft 459 kts 314°
2026-04-25 13:33 10.17575 -81.19943 29866 ft 458 kts 314°
2026-04-25 13:33 10.19068 -81.21518 30016 ft 457 kts 314°
2026-04-25 13:33 10.21273 -81.23847 30208 ft 457 kts 313°
2026-04-25 13:34 10.25684 -81.28507 30525 ft 458 kts 313°
2026-04-25 13:34 10.27889 -81.30838 30709 ft 458 kts 313°
2026-04-25 13:34 10.30093 -81.33167 30906 ft 458 kts 313°
2026-04-25 13:34 10.32298 -81.35498 31075 ft 458 kts 313°
2026-04-25 13:35 10.34480 -81.37804 31253 ft 458 kts 313°
2026-04-25 13:35 10.36686 -81.40137 31450 ft 458 kts 313°
2026-04-25 13:35 10.38891 -81.42468 31647 ft 458 kts 313°
2026-04-25 13:35 10.41125 -81.44832 31841 ft 458 kts 313°
2026-04-25 13:36 10.43331 -81.47166 31934 ft 458 kts 313°
2026-04-25 13:36 10.47719 -81.51810 31947 ft 458 kts 313°
2026-04-25 13:37 10.52086 -81.56433 31950 ft 457 kts 313°
2026-04-25 13:37 10.56129 -81.60716 31945 ft 456 kts 313°
2026-04-25 13:38 10.60258 -81.65090 31945 ft 456 kts 313°
2026-04-25 13:38 10.64659 -81.69757 32009 ft 460 kts 313°
2026-04-25 13:38 10.66881 -81.72113 32123 ft 462 kts 313°
2026-04-25 13:39 10.69102 -81.74469 32345 ft 461 kts 313°
2026-04-25 13:39 10.71312 -81.76813 32618 ft 458 kts 313°
2026-04-25 13:39 10.73514 -81.79149 32871 ft 457 kts 312°
2026-04-25 13:39 10.75712 -81.81483 33046 ft 457 kts 312°
2026-04-25 13:40 10.77913 -81.83819 33227 ft 457 kts 312°
2026-04-25 13:40 10.80108 -81.86150 33439 ft 456 kts 312°
2026-04-25 13:40 10.82297 -81.88475 33696 ft 454 kts 312°
2026-04-25 13:40 10.84479 -81.90794 33901 ft 454 kts 312°
2026-04-25 13:41 10.86663 -81.93114 34058 ft 453 kts 312°
2026-04-25 13:41 10.88840 -81.95429 34216 ft 453 kts 312°
2026-04-25 13:41 10.91021 -81.97746 34385 ft 452 kts 312°
2026-04-25 13:41 10.93193 -82.00056 34553 ft 452 kts 312°
2026-04-25 13:42 10.95363 -82.02364 34701 ft 451 kts 312°
2026-04-25 13:42 10.97534 -82.04674 34857 ft 451 kts 312°
2026-04-25 13:42 10.99698 -82.06976 35021 ft 450 kts 312°
2026-04-25 13:42 11.01860 -82.09277 35177 ft 450 kts 312°
2026-04-25 13:43 11.04021 -82.11578 35324 ft 449 kts 312°
2026-04-25 13:43 11.06178 -82.13875 35476 ft 449 kts 312°
2026-04-25 13:43 11.08332 -82.16169 35636 ft 448 kts 311°
2026-04-25 13:43 11.10484 -82.18462 35760 ft 447 kts 311°
2026-04-25 13:44 11.12630 -82.20749 35904 ft 446 kts 311°
2026-04-25 13:44 11.16924 -82.25326 35941 ft 448 kts 311°
2026-04-25 13:45 11.21223 -82.29910 35953 ft 447 kts 311°
2026-04-25 13:45 11.25142 -82.34091 35953 ft 446 kts 311°
2026-04-25 13:46 11.29349 -82.38582 35952 ft 445 kts 311°
2026-04-25 13:46 11.33618 -82.43141 35953 ft 444 kts 311°
2026-04-25 13:47 11.37875 -82.47688 35953 ft 443 kts 311°
2026-04-25 13:47 11.42016 -82.52115 35953 ft 443 kts 311°
2026-04-25 13:48 11.46263 -82.56656 35958 ft 443 kts 311°
2026-04-25 13:48 11.50512 -82.61202 35954 ft 443 kts 311°
2026-04-25 13:49 11.54759 -82.65749 35954 ft 443 kts 311°
2026-04-25 13:49 11.59013 -82.70304 35958 ft 444 kts 311°
2026-04-25 13:50 11.63209 -82.74918 35960 ft 444 kts 309°
2026-04-25 13:50 11.67270 -82.79675 35955 ft 445 kts 309°
2026-04-25 13:51 11.71319 -82.84452 35954 ft 445 kts 309°
2026-04-25 13:51 11.75389 -82.89222 35956 ft 446 kts 309°
2026-04-25 13:52 11.79479 -82.93995 35953 ft 447 kts 309°
2026-04-25 13:52 11.83574 -82.98769 35950 ft 447 kts 309°
2026-04-25 13:53 11.87677 -83.03554 35951 ft 448 kts 309°
2026-04-25 13:53 11.91784 -83.08347 35946 ft 449 kts 309°
2026-04-25 13:54 11.95892 -83.13145 35951 ft 449 kts 309°
2026-04-25 13:54 12.00008 -83.17953 35946 ft 450 kts 309°
2026-04-25 13:55 12.04126 -83.22767 35945 ft 450 kts 309°
2026-04-25 13:55 12.08248 -83.27588 35946 ft 450 kts 309°
2026-04-25 13:56 12.12342 -83.32379 35942 ft 451 kts 309°
2026-04-25 13:56 12.16462 -83.37203 35942 ft 451 kts 309°
2026-04-25 13:57 12.20585 -83.42032 35940 ft 451 kts 309°
2026-04-25 13:57 12.24711 -83.46867 35938 ft 451 kts 309°
2026-04-25 13:58 12.28834 -83.51702 35933 ft 451 kts 310°
2026-04-25 13:58 12.32962 -83.56545 35937 ft 452 kts 310°
2026-04-25 13:59 12.37088 -83.61388 35934 ft 452 kts 310°
2026-04-25 13:59 12.41221 -83.66241 35929 ft 452 kts 310°
2026-04-25 14:00 12.45354 -83.71098 35930 ft 453 kts 310°
2026-04-25 14:00 12.49495 -83.75967 35932 ft 454 kts 310°
2026-04-25 14:01 12.53638 -83.80840 35929 ft 454 kts 310°
2026-04-25 14:01 12.57788 -83.85724 35921 ft 455 kts 310°
2026-04-25 14:02 12.61940 -83.90613 35930 ft 455 kts 310°
2026-04-25 14:02 12.66096 -83.95510 35933 ft 456 kts 310°
2026-04-25 14:03 12.70257 -84.00416 35923 ft 456 kts 310°
2026-04-25 14:03 12.74419 -84.05324 35920 ft 456 kts 310°
2026-04-25 14:04 12.78582 -84.10237 35917 ft 456 kts 310°
2026-04-25 14:04 12.82744 -84.15151 35908 ft 456 kts 310°
2026-04-25 14:05 12.86901 -84.20061 35907 ft 456 kts 310°
2026-04-25 14:05 12.91059 -84.24977 35903 ft 456 kts 310°
2026-04-25 14:06 12.95212 -84.29889 35906 ft 456 kts 310°
2026-04-25 14:06 12.99365 -84.34803 35892 ft 456 kts 310°
2026-04-25 14:07 13.03517 -84.39719 35892 ft 456 kts 310°
2026-04-25 14:07 13.07638 -84.44601 35883 ft 455 kts 310°
2026-04-25 14:08 13.11782 -84.49513 35887 ft 455 kts 310°
2026-04-25 14:08 13.15925 -84.54426 35884 ft 455 kts 310°
2026-04-25 14:09 13.20065 -84.59339 35880 ft 455 kts 310°
2026-04-25 14:09 13.24202 -84.64251 35880 ft 455 kts 310°
2026-04-25 14:10 13.28336 -84.69162 35883 ft 454 kts 310°
2026-04-25 14:10 13.32466 -84.74072 35879 ft 454 kts 310°
2026-04-25 14:11 13.36598 -84.78986 35884 ft 454 kts 310°
2026-04-25 14:11 13.40728 -84.83901 35889 ft 454 kts 310°
2026-04-25 14:12 13.44858 -84.88819 35891 ft 455 kts 310°
2026-04-25 14:12 13.48988 -84.93740 35894 ft 455 kts 310°
2026-04-25 14:13 13.53122 -84.98667 35899 ft 455 kts 310°
2026-04-25 14:13 13.57255 -85.03597 35902 ft 455 kts 310°
2026-04-25 14:14 13.61385 -85.08526 35909 ft 455 kts 310°
2026-04-25 14:14 13.65513 -85.13456 35906 ft 455 kts 310°
2026-04-25 14:15 13.69645 -85.18394 35913 ft 455 kts 310°
2026-04-25 14:15 13.73774 -85.23330 35912 ft 455 kts 310°
2026-04-25 14:16 13.77895 -85.28261 35914 ft 455 kts 310°
2026-04-25 14:16 13.82018 -85.33195 35917 ft 455 kts 310°
2026-04-25 14:17 13.86138 -85.38130 35922 ft 454 kts 310°
2026-04-25 14:17 13.90224 -85.43027 35922 ft 454 kts 310°
2026-04-25 14:18 13.94333 -85.47953 35930 ft 453 kts 310°
2026-04-25 14:18 13.98438 -85.52879 35928 ft 453 kts 310°
2026-04-25 14:19 14.02537 -85.57801 35930 ft 453 kts 310°
2026-04-25 14:19 14.05971 -85.61926 35933 ft 452 kts 310°
2026-04-25 14:20 14.10728 -85.67644 35937 ft 452 kts 310°
2026-04-25 14:20 14.14132 -85.71738 35939 ft 452 kts 310°
2026-04-25 14:21 14.18223 -85.76661 35939 ft 452 kts 310°
2026-04-25 14:21 14.22311 -85.81583 35939 ft 452 kts 310°
2026-04-25 14:22 14.26395 -85.86503 35950 ft 452 kts 310°
2026-04-25 14:22 14.30482 -85.91430 35945 ft 452 kts 310°
2026-04-25 14:23 14.34563 -85.96353 35944 ft 452 kts 309°
2026-04-25 14:23 14.38647 -86.01283 35954 ft 452 kts 309°
2026-04-25 14:24 14.42729 -86.06212 35947 ft 452 kts 309°
2026-04-25 14:24 14.46834 -86.11173 35958 ft 452 kts 309°
2026-04-25 14:25 14.50888 -86.16076 35969 ft 452 kts 309°
2026-04-25 14:25 14.54969 -86.21014 35977 ft 452 kts 309°
2026-04-25 14:26 14.59046 -86.25951 35985 ft 452 kts 309°
2026-04-25 14:26 14.63120 -86.30886 35988 ft 451 kts 309°
2026-04-25 14:27 14.67189 -86.35820 35987 ft 451 kts 309°
2026-04-25 14:27 14.71258 -86.40755 35991 ft 451 kts 309°
2026-04-25 14:28 14.75317 -86.45682 36006 ft 450 kts 309°
2026-04-25 14:28 14.79370 -86.50605 35995 ft 449 kts 309°
2026-04-25 14:29 14.83425 -86.55533 35998 ft 450 kts 309°
2026-04-25 14:29 14.87478 -86.60462 35985 ft 450 kts 309°
2026-04-25 14:30 14.91531 -86.65394 36003 ft 450 kts 309°
2026-04-25 14:30 14.97615 -86.72804 35996 ft 451 kts 309°
2026-04-25 14:31 15.01677 -86.77755 35999 ft 452 kts 309°
2026-04-25 14:31 15.05743 -86.82715 35986 ft 452 kts 309°
2026-04-25 14:32 15.09813 -86.87683 35990 ft 452 kts 309°
2026-04-25 14:32 15.13878 -86.92649 35980 ft 452 kts 309°
2026-04-25 14:33 15.17944 -86.97617 35972 ft 452 kts 309°
2026-04-25 14:33 15.21956 -87.02626 35974 ft 451 kts 307°
2026-04-25 14:34 15.25902 -87.07674 35943 ft 451 kts 307°
2026-04-25 14:34 15.29838 -87.12713 35955 ft 449 kts 307°
2026-04-25 14:35 15.33772 -87.17738 35944 ft 449 kts 307°
2026-04-25 14:35 15.37704 -87.22755 35946 ft 448 kts 307°
2026-04-25 14:36 15.41628 -87.27762 35936 ft 448 kts 307°
2026-04-25 14:36 15.45550 -87.32771 35937 ft 447 kts 307°
2026-04-25 14:37 15.49249 -87.37498 36023 ft 447 kts 307°
2026-04-25 14:37 15.53164 -87.42504 36074 ft 447 kts 307°
2026-04-25 14:38 15.57075 -87.47509 36105 ft 447 kts 307°
2026-04-25 14:38 15.60986 -87.52517 36134 ft 447 kts 307°
2026-04-25 14:39 15.64898 -87.57531 36140 ft 447 kts 307°
2026-04-25 14:39 15.68810 -87.62546 36122 ft 447 kts 307°
2026-04-25 14:40 15.72717 -87.67559 36112 ft 447 kts 307°
2026-04-25 14:40 15.76622 -87.72574 36079 ft 447 kts 307°
2026-04-25 14:41 15.80529 -87.77593 36006 ft 447 kts 307°
2026-04-25 14:41 15.84430 -87.82609 35924 ft 446 kts 307°
2026-04-25 14:42 15.87672 -87.86780 35890 ft 446 kts 307°
2026-04-25 14:42 15.92223 -87.92639 35891 ft 446 kts 307°
2026-04-25 14:43 15.96111 -87.97648 35896 ft 445 kts 307°
2026-04-25 14:43 15.99995 -88.02655 35896 ft 444 kts 307°
2026-04-25 14:44 16.03869 -88.07653 35895 ft 444 kts 307°
2026-04-25 14:44 16.07740 -88.12650 35883 ft 443 kts 307°
2026-04-25 14:45 16.11607 -88.17646 35874 ft 443 kts 307°
2026-04-25 14:45 16.15469 -88.22639 35873 ft 443 kts 307°
2026-04-25 14:46 16.19324 -88.27626 35882 ft 442 kts 307°
2026-04-25 14:46 16.23154 -88.32584 35860 ft 442 kts 307°
2026-04-25 14:47 16.26381 -88.36766 35858 ft 442 kts 307°
2026-04-25 14:47 16.30857 -88.42567 35859 ft 442 kts 307°
2026-04-25 14:48 16.34706 -88.47561 35873 ft 442 kts 306°
2026-04-25 14:48 16.38555 -88.52558 35872 ft 442 kts 306°
2026-04-25 14:49 16.42402 -88.57555 35892 ft 442 kts 306°
2026-04-25 14:49 16.46250 -88.62559 35886 ft 443 kts 306°
2026-04-25 14:50 16.50098 -88.67564 35902 ft 443 kts 306°
2026-04-25 14:50 16.53948 -88.72576 35897 ft 443 kts 306°
2026-04-25 14:51 16.57800 -88.77595 35907 ft 444 kts 306°
2026-04-25 14:51 16.61658 -88.82624 35900 ft 444 kts 306°
2026-04-25 14:52 16.65515 -88.87657 35915 ft 444 kts 306°
2026-04-25 14:52 16.68716 -88.91835 35931 ft 444 kts 306°
2026-04-25 14:53 16.73215 -88.97713 35914 ft 443 kts 306°
2026-04-25 14:53 16.77054 -89.02732 35926 ft 442 kts 306°
2026-04-25 14:54 16.80880 -89.07738 35918 ft 441 kts 306°
2026-04-25 14:54 16.84702 -89.12742 35931 ft 440 kts 306°
2026-04-25 14:55 16.88509 -89.17731 35922 ft 439 kts 306°
2026-04-25 14:55 16.92313 -89.22719 35914 ft 439 kts 306°
2026-04-25 14:56 16.96086 -89.27670 35917 ft 438 kts 306°
2026-04-25 14:56 16.99883 -89.32657 35918 ft 438 kts 306°
2026-04-25 14:57 17.03680 -89.37646 35912 ft 439 kts 306°
2026-04-25 14:57 17.07482 -89.42646 35911 ft 440 kts 306°
2026-04-25 14:58 17.11287 -89.47653 35928 ft 440 kts 306°
2026-04-25 14:58 17.15095 -89.52668 35922 ft 441 kts 306°
2026-04-25 14:59 17.18910 -89.57696 35913 ft 442 kts 306°
2026-04-25 14:59 17.22729 -89.62733 35914 ft 442 kts 306°
2026-04-25 15:00 17.26552 -89.67779 35928 ft 443 kts 306°
2026-04-25 15:00 17.30377 -89.72832 35919 ft 443 kts 306°
2026-04-25 15:01 17.34207 -89.77895 35917 ft 444 kts 306°
2026-04-25 15:01 17.38010 -89.82924 35925 ft 444 kts 306°
2026-04-25 15:02 17.41840 -89.87995 35916 ft 444 kts 306°
2026-04-25 15:02 17.45669 -89.93067 35921 ft 443 kts 306°
2026-04-25 15:03 17.49488 -89.98132 35916 ft 442 kts 306°
2026-04-25 15:03 17.53299 -90.03187 35912 ft 441 kts 306°
2026-04-25 15:04 17.57095 -90.08228 35916 ft 440 kts 306°
2026-04-25 15:04 17.60882 -90.13260 35910 ft 439 kts 306°
2026-04-25 15:05 17.64657 -90.18282 35907 ft 438 kts 306°
2026-04-25 15:06 17.70297 -90.25790 35900 ft 436 kts 306°
2026-04-25 15:06 17.73412 -90.29941 35902 ft 435 kts 306°
2026-04-25 15:07 17.77155 -90.34932 35899 ft 435 kts 306°
2026-04-25 15:07 17.80896 -90.39924 35893 ft 435 kts 306°
2026-04-25 15:08 17.84617 -90.44935 35898 ft 435 kts 305°
2026-04-25 15:08 17.88308 -90.49971 35894 ft 436 kts 305°
2026-04-25 15:09 17.92005 -90.55023 35894 ft 437 kts 305°
2026-04-25 15:09 17.97567 -90.62618 35889 ft 438 kts 305°
2026-04-25 15:10 18.01254 -90.67654 35892 ft 438 kts 305°
2026-04-25 15:11 18.06832 -90.75278 35883 ft 439 kts 305°
2026-04-25 15:11 18.10547 -90.80362 35881 ft 439 kts 305°
2026-04-25 15:12 18.16118 -90.87992 35880 ft 438 kts 305°
2026-04-25 15:12 18.19199 -90.92216 35882 ft 438 kts 305°
2026-04-25 15:13 18.25373 -91.00690 35874 ft 437 kts 305°
2026-04-25 15:14 18.29069 -91.05767 35877 ft 437 kts 305°
2026-04-25 15:14 18.32756 -91.10835 35878 ft 436 kts 305°
2026-04-25 15:15 18.36438 -91.15902 35871 ft 435 kts 305°
2026-04-25 15:15 18.40114 -91.20964 35871 ft 435 kts 305°
2026-04-25 15:16 18.43759 -91.25988 35870 ft 435 kts 305°
2026-04-25 15:16 18.49259 -91.33575 35870 ft 434 kts 305°
2026-04-25 15:17 18.54635 -91.41000 35873 ft 434 kts 305°
2026-04-25 15:18 18.58303 -91.46071 35869 ft 434 kts 305°
2026-04-25 15:18 18.63792 -91.53667 35869 ft 434 kts 305°
2026-04-25 15:19 18.66832 -91.57878 35868 ft 434 kts 305°
2026-04-25 15:19 18.71105 -91.63801 35872 ft 434 kts 305°
2026-04-25 15:20 18.74763 -91.68877 35868 ft 435 kts 305°
2026-04-25 15:20 18.78395 -91.73920 35869 ft 435 kts 305°
2026-04-25 15:21 18.82050 -91.79000 35870 ft 435 kts 305°
2026-04-25 15:21 18.85705 -91.84083 35868 ft 434 kts 305°
2026-04-25 15:22 18.89130 -91.88851 35869 ft 434 kts 305°
2026-04-25 15:22 18.92737 -91.93875 35867 ft 434 kts 305°
2026-04-25 15:23 18.96383 -91.98959 35866 ft 434 kts 305°
2026-04-25 15:23 19.00026 -92.04042 35867 ft 434 kts 305°
2026-04-25 15:24 19.03663 -92.09121 35866 ft 433 kts 305°
2026-04-25 15:24 19.06685 -92.13344 35866 ft 433 kts 305°
2026-04-25 15:25 19.10932 -92.19284 35868 ft 433 kts 305°
2026-04-25 15:25 19.14559 -92.24362 35866 ft 433 kts 305°
2026-04-25 15:26 19.18184 -92.29439 35865 ft 432 kts 305°
2026-04-25 15:26 19.21805 -92.34517 35865 ft 432 kts 305°
2026-04-25 15:27 19.25421 -92.39593 35870 ft 432 kts 305°
2026-04-25 15:28 19.30840 -92.47205 35866 ft 431 kts 305°
2026-04-25 15:28 19.34449 -92.52279 35870 ft 431 kts 305°
2026-04-25 15:29 19.38050 -92.57348 35869 ft 431 kts 305°
2026-04-25 15:29 19.41649 -92.62418 35864 ft 430 kts 305°
2026-04-25 15:30 19.45245 -92.67487 35868 ft 430 kts 305°
2026-04-25 15:30 19.48833 -92.72549 35865 ft 430 kts 305°
2026-04-25 15:31 19.52420 -92.77615 35863 ft 429 kts 305°
2026-04-25 15:31 19.55866 -92.82485 35863 ft 429 kts 305°
2026-04-25 15:32 19.59443 -92.87545 35863 ft 429 kts 305°
2026-04-25 15:32 19.63017 -92.92604 35862 ft 428 kts 305°
2026-04-25 15:33 19.68371 -93.00191 35859 ft 428 kts 305°
2026-04-25 15:33 19.71936 -93.05249 35861 ft 428 kts 305°
2026-04-25 15:34 19.75475 -93.10274 35859 ft 428 kts 305°
2026-04-25 15:34 19.78457 -93.14511 35860 ft 427 kts 305°
2026-04-25 15:35 19.84367 -93.22918 35856 ft 427 kts 305°
2026-04-25 15:36 19.89690 -93.30500 35855 ft 427 kts 305°
2026-04-25 15:36 19.93237 -93.35558 35858 ft 426 kts 305°
2026-04-25 15:37 19.96779 -93.40612 35856 ft 426 kts 305°
2026-04-25 15:37 20.00317 -93.45665 35855 ft 426 kts 305°
2026-04-25 15:38 20.03850 -93.50715 35851 ft 425 kts 305°
2026-04-25 15:38 20.07378 -93.55763 35849 ft 425 kts 305°
2026-04-25 15:39 20.10876 -93.60772 35851 ft 424 kts 305°
2026-04-25 15:39 20.14394 -93.65814 35851 ft 424 kts 305°
2026-04-25 15:40 20.16745 -93.69187 35846 ft 424 kts 305°
2026-04-25 15:40 20.21417 -93.75893 35848 ft 423 kts 305°
2026-04-25 15:41 20.24922 -93.80929 35845 ft 423 kts 305°
2026-04-25 15:41 20.28423 -93.85963 35842 ft 423 kts 305°
2026-04-25 15:42 20.31918 -93.90995 35843 ft 422 kts 305°
2026-04-25 15:42 20.35412 -93.96028 35843 ft 422 kts 305°
2026-04-25 15:43 20.38902 -94.01060 35843 ft 422 kts 305°
2026-04-25 15:43 20.42388 -94.06091 35841 ft 422 kts 305°
2026-04-25 15:44 20.45875 -94.11127 35841 ft 422 kts 305°
2026-04-25 15:44 20.49358 -94.16162 35841 ft 422 kts 305°
2026-04-25 15:45 20.52840 -94.21200 35841 ft 422 kts 305°
2026-04-25 15:45 20.55146 -94.24539 35840 ft 422 kts 305°
2026-04-25 15:46 20.59802 -94.31286 35839 ft 422 kts 305°
2026-04-25 15:46 20.63280 -94.36333 35839 ft 422 kts 305°
2026-04-25 15:47 20.66758 -94.41382 35837 ft 422 kts 305°
2026-04-25 15:47 20.70235 -94.46435 35838 ft 422 kts 305°
2026-04-25 15:48 20.73710 -94.51489 35837 ft 422 kts 304°
2026-04-25 15:48 20.77182 -94.56544 35834 ft 422 kts 304°
2026-04-25 15:49 20.80649 -94.61597 35827 ft 422 kts 304°
2026-04-25 15:49 20.84115 -94.66652 35829 ft 421 kts 304°
2026-04-25 15:50 20.87541 -94.71652 35829 ft 421 kts 304°
2026-04-25 15:50 20.90977 -94.76672 35829 ft 421 kts 304°
2026-04-25 15:51 20.93289 -94.80053 35829 ft 421 kts 304°
2026-04-25 15:51 20.97888 -94.86783 35829 ft 421 kts 304°
2026-04-25 15:52 21.01341 -94.91843 35830 ft 421 kts 304°
2026-04-25 15:52 21.04789 -94.96899 35828 ft 420 kts 304°
2026-04-25 15:53 21.08251 -95.01943 35827 ft 420 kts 305°
2026-04-25 15:53 21.11785 -95.06893 35826 ft 421 kts 306°
2026-04-25 15:54 21.15352 -95.11855 35827 ft 421 kts 306°
2026-04-25 15:54 21.18912 -95.16829 35827 ft 421 kts 306°
2026-04-25 15:55 21.22465 -95.21813 35829 ft 421 kts 306°
2026-04-25 15:55 21.26013 -95.26799 35828 ft 421 kts 306°
2026-04-25 15:56 21.28961 -95.30945 35827 ft 421 kts 306°
2026-04-25 15:56 21.32507 -95.35938 35828 ft 421 kts 305°
2026-04-25 15:57 21.36054 -95.40935 35827 ft 421 kts 305°
2026-04-25 15:57 21.39596 -95.45930 35826 ft 421 kts 305°
2026-04-25 15:58 21.43139 -95.50931 35825 ft 421 kts 305°
2026-04-25 15:58 21.46680 -95.55934 35827 ft 421 kts 305°
2026-04-25 15:59 21.50216 -95.60934 35826 ft 420 kts 305°
2026-04-25 15:59 21.53749 -95.65935 35827 ft 420 kts 305°
2026-04-25 16:00 21.56681 -95.70087 35828 ft 420 kts 305°
2026-04-25 16:00 21.60800 -95.75927 35831 ft 419 kts 305°
2026-04-25 16:01 21.64296 -95.80889 35823 ft 419 kts 305°
2026-04-25 16:01 21.67806 -95.85875 35824 ft 418 kts 305°
2026-04-25 16:02 21.71310 -95.90857 35831 ft 417 kts 305°
2026-04-25 16:02 21.74807 -95.95834 35827 ft 417 kts 305°
2026-04-25 16:03 21.78300 -96.00809 35831 ft 416 kts 305°
2026-04-25 16:03 21.81685 -96.05635 35832 ft 416 kts 305°
2026-04-25 16:04 21.85170 -96.10607 35834 ft 416 kts 305°
2026-04-25 16:04 21.88652 -96.15582 35830 ft 416 kts 305°
2026-04-25 16:05 21.92130 -96.20554 35827 ft 416 kts 305°
2026-04-25 16:06 21.97345 -96.28018 35832 ft 416 kts 305°
2026-04-25 16:06 22.00818 -96.32994 35832 ft 416 kts 305°
2026-04-25 16:07 22.04289 -96.37972 35831 ft 415 kts 305°
2026-04-25 16:07 22.07761 -96.42957 35827 ft 415 kts 304°
2026-04-25 16:08 22.11226 -96.47938 35833 ft 415 kts 304°
2026-04-25 16:08 22.14694 -96.52925 35827 ft 415 kts 304°
2026-04-25 16:09 22.18083 -96.57947 35830 ft 415 kts 303°
2026-04-25 16:09 22.21377 -96.63004 35833 ft 415 kts 303°
2026-04-25 16:10 22.24693 -96.68103 35832 ft 415 kts 303°
2026-04-25 16:10 22.28014 -96.73194 35833 ft 415 kts 303°
2026-04-25 16:11 22.31338 -96.78283 35834 ft 415 kts 303°
2026-04-25 16:11 22.34661 -96.83370 35836 ft 414 kts 303°
2026-04-25 16:12 22.37981 -96.88459 35836 ft 414 kts 303°
2026-04-25 16:12 22.41297 -96.93546 35829 ft 414 kts 303°
2026-04-25 16:13 22.44610 -96.98634 35832 ft 414 kts 303°
2026-04-25 16:13 22.47917 -97.03716 35828 ft 413 kts 303°
2026-04-25 16:14 22.51221 -97.08801 35835 ft 413 kts 303°
2026-04-25 16:14 22.54524 -97.13888 35833 ft 413 kts 303°
2026-04-25 16:15 22.57823 -97.18972 35835 ft 413 kts 303°
2026-04-25 16:15 22.61116 -97.24054 35832 ft 412 kts 303°
2026-04-25 16:16 22.64406 -97.29136 35832 ft 412 kts 303°
2026-04-25 16:16 22.67693 -97.34219 35830 ft 412 kts 303°
2026-04-25 16:17 22.70977 -97.39301 35829 ft 412 kts 303°
2026-04-25 16:17 22.74256 -97.44379 35824 ft 411 kts 303°
2026-04-25 16:18 22.77532 -97.49459 35830 ft 411 kts 303°
2026-04-25 16:18 22.80781 -97.54502 35833 ft 411 kts 303°
2026-04-25 16:19 22.84051 -97.59582 35834 ft 411 kts 303°
2026-04-25 16:19 22.87319 -97.64663 35835 ft 411 kts 303°
2026-04-25 16:20 22.92216 -97.72288 35827 ft 411 kts 303°
2026-04-25 16:21 22.97108 -97.79916 35838 ft 411 kts 303°
2026-04-25 16:21 23.00369 -97.85006 35835 ft 411 kts 303°
2026-04-25 16:22 23.03629 -97.90101 35831 ft 411 kts 302°
2026-04-25 16:22 23.06884 -97.95192 35844 ft 410 kts 303°
2026-04-25 16:23 23.10138 -98.00288 35837 ft 411 kts 303°
2026-04-25 16:23 23.13392 -98.05388 35830 ft 411 kts 302°
2026-04-25 16:24 23.16643 -98.10488 35838 ft 411 kts 302°
2026-04-25 16:24 23.19893 -98.15593 35841 ft 411 kts 302°
2026-04-25 16:25 23.22854 -98.20248 35832 ft 411 kts 303°
2026-04-25 16:25 23.26106 -98.25365 35834 ft 411 kts 302°
2026-04-25 16:26 23.29357 -98.30484 35842 ft 411 kts 302°
2026-04-25 16:26 23.32598 -98.35593 35842 ft 410 kts 302°
2026-04-25 16:27 23.35831 -98.40695 35844 ft 409 kts 302°
2026-04-25 16:27 23.39035 -98.45758 35836 ft 409 kts 302°
2026-04-25 16:28 23.42259 -98.50856 35826 ft 408 kts 302°
2026-04-25 16:28 23.45475 -98.55946 35830 ft 408 kts 302°
2026-04-25 16:29 23.48651 -98.60978 35827 ft 408 kts 302°
2026-04-25 16:29 23.51759 -98.65909 35823 ft 409 kts 302°
2026-04-25 16:30 23.54977 -98.71017 35835 ft 409 kts 302°
2026-04-25 16:30 23.58196 -98.76133 35833 ft 409 kts 302°
2026-04-25 16:31 23.61411 -98.81248 35839 ft 409 kts 302°
2026-04-25 16:31 23.64622 -98.86362 35851 ft 409 kts 302°
2026-04-25 16:32 23.67834 -98.91483 35848 ft 409 kts 302°
2026-04-25 16:32 23.71048 -98.96604 35849 ft 409 kts 302°
2026-04-25 16:33 23.74348 -99.01660 35852 ft 409 kts 303°
2026-04-25 16:33 23.77687 -99.06698 35849 ft 409 kts 303°
2026-04-25 16:34 23.81018 -99.11743 35845 ft 409 kts 303°
2026-04-25 16:34 23.84338 -99.16791 35838 ft 410 kts 303°
2026-04-25 16:35 23.87657 -99.21852 35838 ft 409 kts 303°
2026-04-25 16:35 23.90971 -99.26912 35838 ft 409 kts 303°
2026-04-25 16:36 23.94281 -99.31972 35842 ft 409 kts 303°
2026-04-25 16:36 23.97590 -99.37034 35849 ft 408 kts 302°
2026-04-25 16:37 24.00888 -99.42085 35849 ft 408 kts 302°
2026-04-25 16:37 24.04177 -99.47126 35855 ft 407 kts 302°
2026-04-25 16:38 24.07462 -99.52168 35861 ft 407 kts 302°
2026-04-25 16:38 24.10750 -99.57219 35863 ft 408 kts 302°
2026-04-25 16:39 24.14039 -99.62276 35858 ft 407 kts 302°
2026-04-25 16:39 24.17319 -99.67321 35848 ft 406 kts 302°
2026-04-25 16:40 24.20553 -99.72312 35886 ft 402 kts 302°
2026-04-25 16:40 24.23800 -99.77317 35856 ft 403 kts 302°
2026-04-25 16:41 24.27048 -99.82330 35870 ft 406 kts 302°
2026-04-25 16:41 24.31984 -99.89958 35879 ft 412 kts 302°
2026-04-25 16:42 24.35314 -99.95117 35873 ft 416 kts 302°
2026-04-25 16:42 24.38633 -100.00259 35858 ft 409 kts 302°
2026-04-25 16:43 24.41895 -100.05316 35886 ft 405 kts 302°
2026-04-25 16:43 24.44595 -100.09510 35893 ft 405 kts 302°
2026-04-25 16:44 24.47852 -100.14574 35898 ft 406 kts 302°
2026-04-25 16:44 24.51115 -100.19651 35888 ft 408 kts 302°
2026-04-25 16:45 24.54389 -100.24750 35894 ft 409 kts 302°
2026-04-25 16:45 24.57669 -100.29864 35886 ft 410 kts 302°
2026-04-25 16:46 24.60947 -100.34979 35888 ft 410 kts 301°
2026-04-25 16:46 24.63673 -100.39237 35889 ft 410 kts 301°
2026-04-25 16:47 24.67508 -100.45233 35888 ft 410 kts 301°
2026-04-25 16:47 24.70779 -100.50355 35901 ft 409 kts 301°
2026-04-25 16:48 24.74042 -100.55468 35904 ft 408 kts 301°
2026-04-25 16:48 24.77302 -100.60582 35912 ft 408 kts 301°
2026-04-25 16:49 24.80554 -100.65690 35917 ft 407 kts 301°
2026-04-25 16:49 24.83799 -100.70791 35918 ft 406 kts 301°
2026-04-25 16:50 24.87035 -100.75885 35930 ft 405 kts 301°
2026-04-25 16:50 24.90265 -100.80973 35929 ft 405 kts 301°
2026-04-25 16:51 24.93487 -100.86055 35940 ft 405 kts 301°
2026-04-25 16:51 24.96166 -100.90285 35931 ft 405 kts 301°
2026-04-25 16:52 24.99933 -100.96238 35937 ft 405 kts 301°
2026-04-25 16:52 25.03152 -101.01332 35931 ft 405 kts 301°
2026-04-25 16:53 25.07983 -101.08986 35921 ft 405 kts 301°
2026-04-25 16:54 25.11182 -101.14061 35918 ft 405 kts 301°
2026-04-25 16:54 25.14400 -101.19171 35920 ft 406 kts 300°
2026-04-25 16:55 25.17635 -101.24318 35907 ft 408 kts 301°
2026-04-25 16:55 25.20865 -101.29457 35900 ft 407 kts 301°
2026-04-25 16:56 25.24084 -101.34585 35884 ft 406 kts 301°
2026-04-25 16:56 25.27293 -101.39701 35878 ft 404 kts 300°
2026-04-25 16:57 25.30487 -101.44800 35872 ft 403 kts 300°
2026-04-25 16:57 25.33665 -101.49880 35867 ft 401 kts 300°
2026-04-25 16:58 25.36834 -101.54951 35861 ft 400 kts 300°
2026-04-25 16:58 25.39995 -101.60016 35857 ft 400 kts 300°
2026-04-25 16:59 25.43149 -101.65074 35847 ft 400 kts 300°
2026-04-25 16:59 25.46307 -101.70144 35841 ft 400 kts 300°
2026-04-25 17:00 25.49463 -101.75216 35838 ft 401 kts 300°
2026-04-25 17:00 25.52628 -101.80309 35823 ft 402 kts 300°
2026-04-25 17:01 25.55794 -101.85408 35825 ft 402 kts 300°
2026-04-25 17:01 25.58962 -101.90516 35821 ft 403 kts 300°
2026-04-25 17:02 25.62134 -101.95634 35823 ft 403 kts 300°
2026-04-25 17:02 25.65303 -102.00755 35826 ft 403 kts 300°
2026-04-25 17:03 25.68474 -102.05885 35814 ft 403 kts 300°
2026-04-25 17:03 25.71644 -102.11016 35823 ft 403 kts 300°
2026-04-25 17:04 25.74806 -102.16143 35811 ft 403 kts 300°
2026-04-25 17:04 25.77945 -102.21238 35815 ft 402 kts 300°
2026-04-25 17:05 25.81100 -102.26363 35812 ft 402 kts 300°
2026-04-25 17:05 25.85817 -102.34037 35812 ft 401 kts 300°
2026-04-25 17:06 25.88958 -102.39154 35815 ft 401 kts 300°
2026-04-25 17:06 25.92092 -102.44265 35820 ft 400 kts 300°
2026-04-25 17:07 25.95221 -102.49374 35818 ft 400 kts 300°
2026-04-25 17:07 25.98340 -102.54476 35825 ft 399 kts 300°
2026-04-25 17:08 26.01461 -102.59581 35821 ft 399 kts 300°
2026-04-25 17:08 26.04571 -102.64676 35828 ft 399 kts 300°
2026-04-25 17:09 26.07682 -102.69776 35817 ft 398 kts 300°
2026-04-25 17:09 26.10792 -102.74884 35802 ft 399 kts 300°
2026-04-25 17:10 26.13899 -102.79989 35797 ft 398 kts 300°
2026-04-25 17:10 26.17000 -102.85092 35826 ft 398 kts 300°
2026-04-25 17:11 26.20099 -102.90198 35822 ft 398 kts 300°
2026-04-25 17:11 26.23178 -102.95275 35824 ft 398 kts 300°
2026-04-25 17:12 26.26279 -103.00395 35831 ft 399 kts 300°
2026-04-25 17:12 26.29381 -103.05522 35823 ft 399 kts 300°
2026-04-25 17:13 26.31456 -103.08955 35824 ft 399 kts 300°
2026-04-25 17:13 26.35572 -103.15771 35833 ft 397 kts 300°
2026-04-25 17:14 26.38656 -103.20884 35834 ft 397 kts 300°
2026-04-25 17:14 26.41731 -103.25991 35841 ft 396 kts 299°
2026-04-25 17:15 26.44801 -103.31093 35837 ft 396 kts 300°
2026-04-25 17:15 26.47870 -103.36201 35836 ft 396 kts 299°
2026-04-25 17:16 26.50935 -103.41307 35835 ft 395 kts 299°
2026-04-25 17:16 26.53991 -103.46403 35831 ft 395 kts 299°
2026-04-25 17:17 26.57043 -103.51498 35825 ft 394 kts 299°
2026-04-25 17:17 26.60089 -103.56590 35829 ft 394 kts 299°
2026-04-25 17:18 26.63129 -103.61677 35827 ft 394 kts 299°
2026-04-25 17:18 26.66168 -103.66769 35828 ft 394 kts 299°
2026-04-25 17:19 26.69185 -103.71828 35814 ft 394 kts 299°
2026-04-25 17:19 26.72222 -103.76928 35818 ft 394 kts 299°
2026-04-25 17:20 26.75255 -103.82027 35817 ft 394 kts 299°
2026-04-25 17:20 26.78292 -103.87137 35814 ft 394 kts 299°
2026-04-25 17:21 26.81327 -103.92251 35813 ft 394 kts 299°
2026-04-25 17:21 26.84359 -103.97364 35816 ft 394 kts 299°
2026-04-25 17:22 26.86387 -104.00788 35813 ft 394 kts 299°
2026-04-25 17:22 26.90416 -104.07598 35812 ft 394 kts 299°
2026-04-25 17:23 26.93435 -104.12708 35818 ft 393 kts 299°
2026-04-25 17:23 26.96452 -104.17821 35819 ft 393 kts 299°
2026-04-25 17:24 26.99463 -104.22929 35824 ft 393 kts 299°
2026-04-25 17:24 27.02477 -104.28047 35827 ft 393 kts 299°
2026-04-25 17:25 27.05483 -104.33159 35827 ft 393 kts 298°
2026-04-25 17:25 27.08490 -104.38276 35830 ft 392 kts 298°
2026-04-25 17:26 27.11489 -104.43388 35831 ft 392 kts 298°
2026-04-25 17:26 27.14485 -104.48499 35838 ft 392 kts 298°
2026-04-25 17:27 27.17477 -104.53610 35835 ft 391 kts 298°
2026-04-25 17:27 27.19456 -104.56994 35836 ft 391 kts 298°
2026-04-25 17:28 27.23454 -104.63837 35837 ft 392 kts 298°
2026-04-25 17:28 27.26422 -104.68926 35838 ft 392 kts 298°
2026-04-25 17:29 27.29408 -104.74050 35817 ft 393 kts 299°
2026-04-25 17:29 27.32426 -104.79239 35834 ft 400 kts 299°
2026-04-25 17:30 27.35488 -104.84508 35838 ft 404 kts 299°
2026-04-25 17:30 27.38572 -104.89816 35835 ft 406 kts 299°
2026-04-25 17:31 27.41660 -104.95139 35830 ft 406 kts 299°
2026-04-25 17:31 27.44739 -105.00452 35834 ft 405 kts 299°
2026-04-25 17:32 27.47293 -105.04867 35833 ft 404 kts 299°
2026-04-25 17:32 27.50351 -105.10156 35828 ft 402 kts 299°
2026-04-25 17:33 27.53392 -105.15424 35833 ft 400 kts 299°
2026-04-25 17:33 27.56419 -105.20673 35832 ft 398 kts 298°
2026-04-25 17:34 27.59430 -105.25902 35834 ft 397 kts 298°
2026-04-25 17:34 27.62430 -105.31119 35834 ft 396 kts 298°
2026-04-25 17:35 27.65424 -105.36330 35838 ft 395 kts 298°
2026-04-25 17:35 27.68410 -105.41534 35840 ft 395 kts 298°
2026-04-25 17:36 27.71392 -105.46737 35842 ft 395 kts 298°
2026-04-25 17:36 27.74374 -105.51948 35842 ft 395 kts 298°
2026-04-25 17:37 27.77355 -105.57162 35846 ft 395 kts 298°
2026-04-25 17:37 27.80318 -105.62351 35845 ft 396 kts 298°
2026-04-25 17:38 27.82820 -105.66737 35857 ft 397 kts 298°
2026-04-25 17:38 27.86291 -105.72829 35850 ft 397 kts 298°
2026-04-25 17:39 27.89276 -105.78074 35848 ft 396 kts 298°
2026-04-25 17:39 27.92254 -105.83315 35853 ft 396 kts 298°
2026-04-25 17:40 27.95230 -105.88557 35853 ft 396 kts 298°
2026-04-25 17:40 27.98199 -105.93795 35854 ft 395 kts 297°
2026-04-25 17:41 28.01159 -105.99022 35860 ft 394 kts 297°
2026-04-25 17:41 28.04116 -106.04250 35865 ft 394 kts 297°
2026-04-25 17:42 28.07065 -106.09472 35868 ft 394 kts 297°
2026-04-25 17:42 28.10019 -106.14708 35864 ft 394 kts 297°
2026-04-25 17:43 28.12967 -106.19940 35872 ft 394 kts 297°
2026-04-25 17:43 28.15912 -106.25174 35872 ft 393 kts 297°
2026-04-25 17:44 28.18849 -106.30398 35877 ft 393 kts 297°
2026-04-25 17:44 28.21780 -106.35618 35883 ft 392 kts 297°
2026-04-25 17:45 28.24212 -106.39956 35889 ft 392 kts 297°
2026-04-25 17:45 28.27633 -106.46065 35889 ft 393 kts 297°
2026-04-25 17:46 28.30564 -106.51306 35896 ft 394 kts 297°
2026-04-25 17:46 28.33483 -106.56532 35898 ft 395 kts 297°
2026-04-25 17:47 28.36424 -106.61802 35905 ft 396 kts 297°
2026-04-25 17:47 28.39371 -106.67090 35908 ft 397 kts 297°
2026-04-25 17:48 28.43798 -106.75044 35925 ft 397 kts 297°
2026-04-25 17:49 28.46746 -106.80351 35913 ft 397 kts 297°
2026-04-25 17:49 28.49692 -106.85662 35927 ft 397 kts 297°
2026-04-25 17:50 28.52634 -106.90971 35929 ft 397 kts 297°
2026-04-25 17:50 28.55571 -106.96278 35932 ft 396 kts 297°
2026-04-25 17:51 28.58504 -107.01585 35934 ft 396 kts 297°
2026-04-25 17:51 28.61432 -107.06887 35938 ft 396 kts 297°
2026-04-25 17:52 28.64358 -107.12196 35947 ft 396 kts 297°
2026-04-25 17:52 28.67279 -107.17502 35941 ft 396 kts 297°
2026-04-25 17:53 28.70204 -107.22819 35950 ft 396 kts 297°
2026-04-25 17:53 28.73109 -107.28108 35938 ft 396 kts 297°
2026-04-25 17:54 28.76028 -107.33429 35952 ft 396 kts 297°
2026-04-25 17:54 28.78933 -107.38736 35949 ft 394 kts 297°
2026-04-25 17:55 28.81832 -107.44030 35953 ft 395 kts 297°
2026-04-25 17:55 28.84737 -107.49346 35956 ft 396 kts 297°
2026-04-25 17:56 28.87648 -107.54681 35955 ft 396 kts 297°
2026-04-25 17:56 28.90564 -107.60030 35952 ft 397 kts 297°
2026-04-25 17:57 28.93481 -107.65388 35955 ft 398 kts 297°
2026-04-25 17:57 28.96403 -107.70764 35957 ft 399 kts 297°
2026-04-25 17:58 28.99331 -107.76157 35959 ft 400 kts 296°
2026-04-25 17:58 29.02256 -107.81550 35962 ft 399 kts 296°
2026-04-25 17:59 29.05178 -107.86944 35970 ft 399 kts 296°
2026-04-25 17:59 29.08084 -107.92316 35974 ft 397 kts 296°
2026-04-25 18:00 29.10981 -107.97680 35980 ft 395 kts 296°
2026-04-25 18:00 29.13866 -108.03028 35979 ft 395 kts 296°
2026-04-25 18:01 29.16744 -108.08371 35978 ft 395 kts 296°
2026-04-25 18:01 29.19622 -108.13721 35980 ft 394 kts 296°
2026-04-25 18:02 29.22475 -108.19030 35984 ft 394 kts 296°
2026-04-25 18:02 29.25363 -108.24413 35996 ft 395 kts 296°
2026-04-25 18:03 29.28217 -108.29735 35991 ft 395 kts 296°
2026-04-25 18:03 29.31093 -108.35111 35951 ft 395 kts 295°
2026-04-25 18:04 29.33945 -108.40445 35955 ft 390 kts 296°
2026-04-25 18:04 29.36761 -108.45712 35999 ft 384 kts 295°
2026-04-25 18:05 29.39575 -108.50991 35931 ft 391 kts 296°
2026-04-25 18:05 29.42426 -108.56355 35969 ft 398 kts 295°
2026-04-25 18:06 29.45309 -108.61783 35953 ft 397 kts 295°
2026-04-25 18:06 29.48166 -108.67153 35954 ft 390 kts 295°
2026-04-25 18:07 29.50974 -108.72441 35948 ft 387 kts 295°
2026-04-25 18:07 29.53743 -108.77672 35937 ft 385 kts 295°
2026-04-25 18:08 29.56559 -108.83001 35948 ft 391 kts 295°
2026-04-25 18:08 29.59390 -108.88364 35935 ft 392 kts 295°
2026-04-25 18:09 29.62201 -108.93690 35924 ft 394 kts 295°
2026-04-25 18:09 29.65040 -108.99076 35922 ft 394 kts 295°
2026-04-25 18:10 29.67871 -109.04456 35920 ft 392 kts 295°
2026-04-25 18:10 29.70681 -109.09799 35910 ft 389 kts 295°
2026-04-25 18:11 29.73469 -109.15110 35908 ft 386 kts 295°
2026-04-25 18:11 29.76235 -109.20390 35919 ft 384 kts 294°
2026-04-25 18:12 29.78991 -109.25656 35902 ft 384 kts 294°
2026-04-25 18:12 29.81747 -109.30929 35897 ft 384 kts 294°
2026-04-25 18:13 29.84496 -109.36196 35897 ft 383 kts 294°
2026-04-25 18:13 29.87235 -109.41448 35886 ft 383 kts 294°
2026-04-25 18:14 29.91354 -109.49369 35883 ft 383 kts 295°
2026-04-25 18:14 29.94103 -109.54651 35898 ft 386 kts 294°
2026-04-25 18:15 29.96798 -109.60031 35895 ft 389 kts 292°
2026-04-25 18:15 29.99408 -109.65517 35892 ft 391 kts 292°
2026-04-25 18:16 30.02025 -109.71027 35901 ft 391 kts 292°
2026-04-25 18:17 30.05959 -109.79275 35895 ft 391 kts 292°
2026-04-25 18:17 30.08578 -109.84763 35889 ft 389 kts 292°
2026-04-25 18:18 30.11171 -109.90202 35859 ft 384 kts 292°
2026-04-25 18:18 30.13716 -109.95543 35859 ft 382 kts 292°
2026-04-25 18:19 30.16270 -110.00916 35897 ft 381 kts 291°
2026-04-25 18:19 30.18822 -110.06293 35902 ft 381 kts 291°
2026-04-25 18:20 30.21364 -110.11651 35841 ft 381 kts 291°
2026-04-25 18:20 30.23910 -110.17030 35897 ft 382 kts 291°
2026-04-25 18:21 30.26467 -110.22443 35884 ft 385 kts 291°
2026-04-25 18:21 30.28601 -110.26964 35899 ft 385 kts 291°
2026-04-25 18:22 30.31171 -110.32413 35862 ft 386 kts 291°
2026-04-25 18:22 30.33725 -110.37834 35913 ft 383 kts 291°
2026-04-25 18:23 30.36278 -110.43261 35908 ft 384 kts 291°
2026-04-25 18:23 30.38842 -110.48724 35890 ft 387 kts 291°
2026-04-25 18:24 30.41411 -110.54202 35890 ft 388 kts 291°
2026-04-25 18:24 30.43986 -110.59697 35881 ft 387 kts 291°
2026-04-25 18:25 30.46547 -110.65171 35883 ft 386 kts 291°
2026-04-25 18:25 30.49095 -110.70625 35883 ft 383 kts 291°
2026-04-25 18:26 30.51617 -110.76025 35896 ft 380 kts 291°
2026-04-25 18:26 30.54122 -110.81398 35880 ft 377 kts 290°
2026-04-25 18:27 30.56604 -110.86741 35876 ft 375 kts 290°
2026-04-25 18:27 30.59076 -110.92069 35865 ft 375 kts 290°
2026-04-25 18:28 30.61541 -110.97391 35871 ft 376 kts 290°
2026-04-25 18:28 30.64025 -111.02757 35866 ft 378 kts 290°
2026-04-25 18:29 30.67769 -111.10860 35866 ft 381 kts 290°
2026-04-25 18:30 30.72807 -111.21786 35850 ft 385 kts 290°
2026-04-25 18:30 30.75312 -111.27227 35877 ft 384 kts 290°
2026-04-25 18:31 30.77839 -111.32724 35870 ft 385 kts 290°
2026-04-25 18:31 30.80363 -111.38223 35860 ft 385 kts 290°
2026-04-25 18:32 30.82881 -111.43719 35861 ft 385 kts 290°
2026-04-25 18:32 30.85392 -111.49206 35859 ft 383 kts 290°
2026-04-25 18:33 30.87891 -111.54672 35863 ft 382 kts 289°
2026-04-25 18:33 30.90379 -111.60127 35863 ft 381 kts 289°
2026-04-25 18:34 30.92857 -111.65567 35872 ft 379 kts 289°
2026-04-25 18:34 30.95326 -111.70994 35862 ft 379 kts 289°
2026-04-25 18:35 30.97786 -111.76412 35867 ft 378 kts 289°
2026-04-25 18:35 31.00246 -111.81836 35863 ft 378 kts 289°
2026-04-25 18:36 31.02701 -111.87256 35874 ft 378 kts 289°
2026-04-25 18:36 31.05155 -111.92684 35869 ft 378 kts 289°
2026-04-25 18:37 31.07608 -111.98115 35878 ft 379 kts 289°
2026-04-25 18:37 31.10062 -112.03557 35874 ft 379 kts 289°
2026-04-25 18:38 31.12514 -112.09002 35879 ft 379 kts 289°
2026-04-25 18:38 31.14968 -112.14460 35886 ft 380 kts 289°
2026-04-25 18:39 31.17422 -112.19926 35880 ft 380 kts 289°
2026-04-25 18:39 31.19875 -112.25396 35883 ft 380 kts 289°
2026-04-25 18:40 31.22310 -112.30836 35887 ft 380 kts 289°
2026-04-25 18:40 31.24761 -112.36317 35891 ft 381 kts 288°
2026-04-25 18:41 31.27208 -112.41800 35886 ft 381 kts 288°
2026-04-25 18:41 31.29654 -112.47287 35891 ft 380 kts 288°
2026-04-25 18:42 31.31698 -112.51878 35889 ft 380 kts 288°
2026-04-25 18:42 31.34532 -112.58253 35891 ft 380 kts 288°
2026-04-25 18:43 31.36961 -112.63726 35893 ft 379 kts 288°
2026-04-25 18:43 31.39389 -112.69207 35894 ft 379 kts 288°
2026-04-25 18:44 31.41812 -112.74684 35900 ft 379 kts 288°
2026-04-25 18:44 31.44234 -112.80165 35899 ft 379 kts 288°
2026-04-25 18:45 31.46653 -112.85648 35898 ft 379 kts 288°
2026-04-25 18:45 31.49066 -112.91125 35899 ft 379 kts 288°
2026-04-25 18:46 31.51478 -112.96609 35897 ft 379 kts 288°
2026-04-25 18:46 31.53888 -113.02099 35899 ft 379 kts 288°
2026-04-25 18:47 31.56294 -113.07584 35901 ft 378 kts 288°
2026-04-25 18:47 31.58698 -113.13075 35903 ft 378 kts 288°
2026-04-25 18:48 31.61100 -113.18569 35904 ft 379 kts 288°
2026-04-25 18:48 31.63506 -113.24081 35905 ft 380 kts 288°
2026-04-25 18:49 31.65914 -113.29605 35897 ft 381 kts 287°
2026-04-25 18:49 31.68323 -113.35139 35895 ft 381 kts 287°
2026-04-25 18:50 31.70733 -113.40684 35891 ft 381 kts 287°
2026-04-25 18:50 31.73143 -113.46237 35882 ft 381 kts 287°
2026-04-25 18:51 31.74734 -113.49908 35894 ft 381 kts 287°
2026-04-25 18:51 31.77956 -113.57355 35884 ft 383 kts 287°
2026-04-25 18:52 31.80353 -113.62904 35888 ft 383 kts 287°
2026-04-25 18:52 31.82762 -113.68488 35887 ft 383 kts 287°
2026-04-25 18:53 31.85171 -113.74081 35890 ft 383 kts 287°
2026-04-25 18:53 31.87575 -113.79671 35891 ft 383 kts 287°
2026-04-25 18:54 31.91169 -113.88043 35888 ft 382 kts 287°
2026-04-25 18:55 31.93558 -113.93620 35892 ft 381 kts 287°
2026-04-25 18:55 31.95939 -113.99190 35892 ft 381 kts 287°
2026-04-25 18:56 31.98322 -114.04771 35891 ft 381 kts 287°
2026-04-25 18:56 32.00701 -114.10352 35890 ft 381 kts 287°
2026-04-25 18:57 32.03079 -114.15938 35893 ft 382 kts 287°
2026-04-25 18:57 32.05457 -114.21533 35896 ft 382 kts 287°
2026-04-25 18:58 32.07840 -114.27149 35897 ft 383 kts 287°
2026-04-25 18:58 32.11418 -114.35597 35897 ft 385 kts 287°
2026-04-25 18:59 32.16201 -114.46922 35912 ft 387 kts 287°
2026-04-25 19:00 32.19797 -114.55460 35900 ft 388 kts 287°
2026-04-25 19:01 32.23380 -114.63983 35891 ft 388 kts 287°
2026-04-25 19:01 32.25777 -114.69698 35899 ft 388 kts 286°
2026-04-25 19:02 32.29361 -114.78261 35904 ft 387 kts 286°
2026-04-25 19:03 32.32152 -114.84943 35899 ft 387 kts 286°
2026-04-25 19:03 32.35319 -114.92541 35895 ft 387 kts 286°
2026-04-25 19:04 32.38876 -115.01094 35899 ft 386 kts 286°
2026-04-25 19:05 32.43607 -115.12503 35911 ft 386 kts 286°
2026-04-25 19:06 32.45963 -115.18199 35917 ft 385 kts 286°
2026-04-25 19:06 32.49491 -115.26745 35921 ft 385 kts 286°
2026-04-25 19:07 32.52175 -115.33260 35929 ft 385 kts 286°
2026-04-25 19:08 32.55302 -115.40866 35922 ft 386 kts 286°
2026-04-25 19:09 32.59599 -115.51346 35929 ft 387 kts 286°
2026-04-25 19:10 32.63521 -115.60937 35921 ft 388 kts 285°
2026-04-25 19:10 32.65967 -115.66656 35918 ft 394 kts 290°
2026-04-25 19:11 32.68879 -115.72183 35923 ft 395 kts 291°
2026-04-25 19:11 32.71808 -115.77697 35922 ft 395 kts 291°
2026-04-25 19:12 32.74715 -115.83224 35922 ft 394 kts 291°
2026-04-25 19:12 32.77607 -115.88751 35935 ft 394 kts 291°
2026-04-25 19:13 32.80495 -115.94278 35942 ft 394 kts 291°
2026-04-25 19:13 32.83315 -115.99841 35946 ft 392 kts 290°
2026-04-25 19:14 32.86099 -116.05420 35955 ft 392 kts 290°
2026-04-25 19:14 32.88886 -116.11001 35942 ft 393 kts 290°
2026-04-25 19:15 32.91683 -116.16596 35956 ft 393 kts 290°
2026-04-25 19:15 32.94460 -116.22156 35952 ft 394 kts 290°
2026-04-25 19:16 32.96831 -116.26909 35938 ft 394 kts 290°
2026-04-25 19:16 32.98986 -116.31238 35659 ft 400 kts 290°
2026-04-25 19:16 33.00406 -116.34096 35167 ft 401 kts 290°
2026-04-25 19:17 33.01828 -116.36950 34568 ft 400 kts 290°
2026-04-25 19:17 33.03248 -116.39803 33923 ft 401 kts 290°
2026-04-25 19:17 33.04669 -116.42677 33191 ft 402 kts 290°
2026-04-25 19:17 33.05925 -116.45617 32457 ft 396 kts 287°
2026-04-25 19:18 33.07035 -116.48616 31783 ft 395 kts 286°
2026-04-25 19:18 33.08110 -116.51633 31093 ft 396 kts 287°
2026-04-25 19:18 33.09196 -116.54658 30380 ft 398 kts 288°
2026-04-25 19:18 33.10308 -116.57691 29570 ft 401 kts 288°
2026-04-25 19:19 33.11443 -116.60736 28745 ft 402 kts 288°
2026-04-25 19:19 33.12583 -116.63786 27937 ft 403 kts 289°
2026-04-25 19:19 33.13565 -116.66905 27085 ft 399 kts 278°
2026-04-25 19:19 33.13897 -116.69056 26592 ft 397 kts 276°
2026-04-25 19:20 33.14500 -116.73409 25734 ft 401 kts 276°
2026-04-25 19:20 33.14965 -116.76765 25090 ft 418 kts 276°
2026-04-25 19:20 33.15449 -116.80198 24396 ft 418 kts 276°
2026-04-25 19:20 33.15940 -116.83604 23730 ft 415 kts 276°
2026-04-25 19:21 33.16432 -116.86983 22974 ft 412 kts 276°
2026-04-25 19:21 33.17405 -116.93641 21615 ft 402 kts 276°
2026-04-25 19:21 33.17881 -116.96903 20978 ft 397 kts 276°
2026-04-25 19:22 33.18348 -117.00123 20359 ft 392 kts 276°
2026-04-25 19:22 33.18811 -117.03320 19738 ft 389 kts 276°
2026-04-25 19:22 33.19721 -117.09629 18537 ft 383 kts 276°
2026-04-25 19:23 33.20167 -117.12726 18007 ft 377 kts 276°
2026-04-25 19:23 33.21050 -117.18885 16608 ft 373 kts 276°
2026-04-25 19:23 33.21285 -117.20522 16296 ft 371 kts 276°
2026-04-25 19:24 33.21542 -117.22312 15940 ft 369 kts 276°
2026-04-25 19:24 33.21833 -117.24356 15532 ft 366 kts 276°
2026-04-25 19:24 33.22656 -117.30137 14388 ft 360 kts 276°
2026-04-25 19:25 33.23511 -117.35857 13848 ft 343 kts 276°
2026-04-25 19:25 33.23963 -117.38726 13721 ft 353 kts 276°
2026-04-25 19:25 33.24411 -117.41584 13566 ft 358 kts 276°
2026-04-25 19:26 33.24869 -117.44505 13413 ft 357 kts 276°
2026-04-25 19:26 33.25324 -117.47416 13279 ft 355 kts 276°
2026-04-25 19:26 33.25773 -117.50308 13127 ft 354 kts 276°
2026-04-25 19:26 33.26332 -117.53179 12977 ft 358 kts 285°
2026-04-25 19:27 33.27506 -117.55845 12766 ft 367 kts 297°
2026-04-25 19:27 33.28447 -117.57579 12618 ft 369 kts 298°
2026-04-25 19:27 33.30326 -117.60986 12315 ft 371 kts 298°
2026-04-25 19:27 33.31742 -117.63560 12066 ft 370 kts 298°
2026-04-25 19:28 33.33140 -117.66117 11834 ft 364 kts 298°
2026-04-25 19:28 33.34514 -117.68650 11605 ft 363 kts 298°
2026-04-25 19:28 33.35866 -117.71154 11371 ft 352 kts 298°
2026-04-25 19:28 33.37171 -117.73574 11156 ft 340 kts 298°
2026-04-25 19:29 33.38430 -117.75918 10949 ft 330 kts 298°
2026-04-25 19:29 33.39600 -117.78100 10735 ft 320 kts 298°
2026-04-25 19:29 33.40787 -117.80316 10550 ft 311 kts 298°
2026-04-25 19:29 33.41938 -117.82469 10360 ft 303 kts 298°
2026-04-25 19:30 33.43057 -117.84561 10183 ft 295 kts 298°
2026-04-25 19:30 33.44151 -117.86607 9988 ft 288 kts 298°
2026-04-25 19:30 33.45207 -117.88580 9984 ft 275 kts 298°
2026-04-25 19:30 33.46230 -117.90495 9682 ft 273 kts 298°
2026-04-25 19:31 33.47273 -117.92360 9497 ft 269 kts 307°
2026-04-25 19:31 33.48750 -117.93734 9302 ft 272 kts 330°
2026-04-25 19:31 33.50522 -117.94570 9148 ft 274 kts 336°
2026-04-25 19:31 33.52329 -117.95330 8957 ft 276 kts 337°
2026-04-25 19:32 33.54144 -117.96091 8789 ft 277 kts 337°
2026-04-25 19:32 33.55960 -117.96863 8612 ft 277 kts 336°
2026-04-25 19:32 33.57771 -117.97644 8440 ft 277 kts 336°
2026-04-25 19:32 33.58971 -117.98164 8340 ft 276 kts 336°
2026-04-25 19:33 33.61364 -117.99204 8099 ft 271 kts 337°
2026-04-25 19:33 33.63132 -117.99949 7890 ft 271 kts 339°
2026-04-25 19:33 33.64933 -118.00609 7669 ft 271 kts 340°
2026-04-25 19:33 33.66741 -118.01255 7456 ft 270 kts 340°
2026-04-25 19:34 33.68534 -118.01901 7192 ft 269 kts 341°
2026-04-25 19:34 33.70323 -118.02549 7030 ft 267 kts 340°
2026-04-25 19:34 33.72087 -118.03191 6981 ft 264 kts 340°
2026-04-25 19:34 33.73822 -118.03824 6965 ft 255 kts 340°
2026-04-25 19:35 33.75471 -118.04426 6952 ft 247 kts 340°
2026-04-25 19:35 33.77088 -118.05016 6948 ft 237 kts 340°
2026-04-25 19:35 33.78631 -118.05595 6918 ft 231 kts 337°
2026-04-25 19:35 33.80146 -118.06300 6630 ft 234 kts 335°
2026-04-25 19:36 33.81657 -118.07043 6366 ft 235 kts 335°
2026-04-25 19:36 33.83173 -118.07783 6083 ft 236 kts 335°
2026-04-25 19:36 33.84569 -118.08458 5823 ft 236 kts 336°
2026-04-25 19:36 33.86089 -118.09192 5571 ft 237 kts 336°
2026-04-25 19:37 33.87640 -118.09939 5268 ft 239 kts 337°
2026-04-25 19:37 33.89186 -118.10690 4988 ft 240 kts 334°
2026-04-25 19:37 33.90577 -118.11715 4690 ft 243 kts 324°
2026-04-25 19:37 33.91885 -118.12826 4394 ft 244 kts 324°
2026-04-25 19:38 33.93127 -118.13860 4118 ft 246 kts 324°
2026-04-25 19:38 33.94256 -118.14792 3890 ft 244 kts 323°
2026-04-25 19:38 33.95390 -118.16264 3575 ft 236 kts 294°
2026-04-25 19:38 33.95655 -118.18091 3428 ft 218 kts 266°
2026-04-25 19:39 33.95598 -118.19832 3143 ft 211 kts 263°
2026-04-25 19:39 33.95458 -118.21549 2872 ft 202 kts 261°
2026-04-25 19:39 33.95294 -118.23142 2616 ft 197 kts 259°
2026-04-25 19:39 33.95133 -118.24687 2365 ft 193 kts 258°
2026-04-25 19:40 33.94962 -118.26330 2098 ft 188 kts 259°
2026-04-25 19:40 33.94802 -118.27886 1855 ft 183 kts 259°
2026-04-25 19:40 33.94646 -118.29391 1605 ft 180 kts 260°
2026-04-25 19:40 33.94499 -118.30842 1399 ft 168 kts 260°
2026-04-25 19:41 33.94361 -118.32179 1168 ft 154 kts 259°
2026-04-25 19:41 33.94228 -118.33417 941 ft 149 kts 259°
2026-04-25 19:41 33.94095 -118.34652 725 ft 149 kts 262°
2026-04-25 19:41 33.94060 -118.35053 651 ft 148 kts 262°
2026-04-25 19:42 33.93864 -118.37120 371 ft 151 kts 258°
2026-04-25 19:42 33.93726 -118.38343 164 ft 141 kts 260°
2026-04-25 19:42 33.93623 -118.39377 121 ft 98 kts 263°
2026-04-25 19:42 33.93566 -118.39943 125 ft 46 kts 263°
2026-04-25 19:43 33.93575 -118.40201 123 ft 22 kts 285°
2026-04-25 19:43 33.93622 -118.40351 120 ft 14 kts 289°
2026-04-25 19:43 33.93626 -118.40370 121 ft 0 kts 284°
2026-04-25 19:44 33.93628 -118.40408 125 ft 12 kts 268°
2026-04-25 19:44 33.93629 -118.40467 125 ft 1 kts 314°
2026-04-25 19:44 33.93627 -118.40475 125 ft 2 kts 251°
2026-04-25 19:44 33.93616 -118.40542 125 ft 11 kts 263°
2026-04-25 19:45 33.93606 -118.40634 121 ft 11 kts 262°
2026-04-25 19:45 33.93596 -118.40729 124 ft 12 kts 263°
2026-04-25 19:45 33.93604 -118.40837 122 ft 14 kts 295°
2026-04-25 19:45 33.93677 -118.40899 122 ft 13 kts 349°
2026-04-25 19:46 33.93767 -118.40911 124 ft 13 kts 353°
2026-04-25 19:46 33.93844 -118.40921 123 ft 6 kts 349°
2026-04-25 19:46 33.93861 -118.40963 123 ft 6 kts 267°
2026-04-25 19:46 33.93857 -118.41017 124 ft 7 kts 262°
2026-04-25 19:47 33.93847 -118.41104 125 ft 10 kts 262°
2026-04-25 19:47 33.93882 -118.41164 125 ft 10 kts 348°
2026-04-25 19:47 33.93952 -118.41175 122 ft 11 kts 353°
2026-04-25 19:47 33.94051 -118.41190 123 ft 16 kts 353°
2026-04-25 19:48 33.94165 -118.41207 123 ft 16 kts 353°
2026-04-25 19:48 33.94273 -118.41223 123 ft 16 kts 352°
2026-04-25 19:48 33.94380 -118.41239 122 ft 15 kts 353°
2026-04-25 19:48 33.94481 -118.41254 122 ft 14 kts 353°
2026-04-25 19:49 33.94578 -118.41268 122 ft 14 kts 353°
2026-04-25 19:49 33.94608 -118.41273 122 ft 13 kts 353°
2026-04-25 19:49 33.94710 -118.41212 125 ft 11 kts 76°
2026-04-25 19:49 33.94729 -118.41125 125 ft 11 kts 81°
2026-04-25 19:50 33.94745 -118.40959 125 ft 1 kts 103°
2026-04-25 19:50 33.94738 -118.40960 125 ft 1 kts 193°
2026-04-25 19:50 33.94737 -118.40969 125 ft 1 kts 264°
2026-04-25 19:51 33.94736 -118.40990 125 ft 5 kts 266°
2026-04-25 19:51 33.94729 -118.41028 121 ft 2 kts 218°
2026-04-25 19:51 33.94706 -118.41031 124 ft 6 kts 189°
2026-04-25 19:51 33.94693 -118.41033 124 ft 0 kts 188°